Colby, KS

3:30 AM CST on December 14, 2017 (GMT -0600)
Shaltz

Weather History for KCBK - November, 2012

Change the Weather History Date:

Monday, November 26, 2012

  Actual Average (KGLD) Record (KGLD)
Temperature  
Mean Temperature 27 °F -  
Max Temperature 37 °F 44 °F 77 °F (2017)
Min Temperature 17 °F 20 °F -7 °F (1952)
Degree Days  
Heating Degree Days 38    
Moisture  
Dew Point 25 °F    
Average Humidity 84    
Maximum Humidity 100    
Minimum Humidity 60    
Precipitation  
Precipitation 0.00 in - - ()
Sea Level Pressure  
Sea Level Pressure 30.28 in    
Wind  
Wind Speed 8 mph ()    
Max Wind Speed 18 mph    
Max Gust Speed 18 mph    
Visibility 10.0 miles    
Events      
Averages and records for this station are not official NWS values.
T = Trace of Precipitation, MM = Missing Value Source: Averaged Metar Reports

Daily Weather History Graph

Daily Weather History Graph

Search for Another Location

Airport or City:

Trip Planner

Search our weather history database for the weather conditions in past years. The results will help you decide how hot, cold, wet, or windy it might be!

Date:

Astronomy

Nov. 26, 2012 Rise Set
Actual Time 7:40 AM CST 5:22 PM CST
Civil Twilight 7:11 AM CST 5:51 PM CST
Nautical Twilight 6:38 AM CST 6:25 PM CST
Astronomical Twilight 6:05 AM CST 6:57 PM CST
Moon 4:15 PM CST (11/26) 5:53 AM CST (11/26)
Length of Visible Light 10h 40m
Length of Day
9h 41m
Waxing Gibbous, 97% of the Moon is Illuminated
Nov 26
Waxing Gibbous
Nov 28
Full
Dec 6
Last Quarter
Dec 13
New
Dec 19
First Quarter

Hourly Weather History & Observations

Time (CST) Temp. Windchill Dew Point Humidity Pressure Visibility Wind Dir Wind Speed Gust Speed Precip Events Conditions
12:15 AM 30.2 °F 22.6 °F 26.6 °F 86% 30.02 in 10.0 mi East 8.1 mph - N/A   Clear
12:35 AM 28.4 °F 20.4 °F 26.6 °F 93% 30.01 in 10.0 mi East 8.1 mph - N/A   Clear
12:55 AM 28.4 °F 20.4 °F 26.6 °F 93% 30.03 in 10.0 mi NE 8.1 mph - N/A   Clear
1:15 AM 28.4 °F 20.4 °F 26.6 °F 93% 30.03 in 10.0 mi NE 8.1 mph - N/A   Clear
1:35 AM 28.4 °F 20.4 °F 26.6 °F 93% 30.04 in 10.0 mi NNE 8.1 mph - N/A   Clear
1:55 AM 28.4 °F 19.1 °F 26.6 °F 93% 30.05 in 10.0 mi NNE 10.4 mph - N/A   Clear
2:15 AM 28.4 °F 19.7 °F 26.6 °F 93% 30.06 in 10.0 mi NE 9.2 mph - N/A   Clear
2:35 AM 28.4 °F 19.7 °F 26.6 °F 93% 30.06 in 10.0 mi NE 9.2 mph - N/A   Clear
2:55 AM 28.4 °F 19.7 °F 26.6 °F 93% 30.07 in 10.0 mi NE 9.2 mph - N/A   Clear
3:15 AM 28.4 °F 20.4 °F 26.6 °F 93% 30.09 in 10.0 mi NE 8.1 mph - N/A   Clear
3:35 AM 28.4 °F 19.7 °F 26.6 °F 93% 30.10 in 10.0 mi NNE 9.2 mph - N/A   Clear
3:55 AM 28.4 °F 19.1 °F 26.6 °F 93% 30.11 in 10.0 mi NNE 10.4 mph - N/A   Clear
4:15 AM 28.4 °F 21.2 °F 26.6 °F 93% 30.11 in 10.0 mi NNE 6.9 mph - N/A   Clear
4:35 AM 28.4 °F 19.1 °F 24.8 °F 86% 30.12 in 10.0 mi NNE 10.4 mph - N/A   Clear
4:55 AM 28.4 °F 19.7 °F 26.6 °F 93% 30.13 in 10.0 mi NNE 9.2 mph - N/A   Clear
5:15 AM 26.6 °F 16.8 °F 24.8 °F 93% 30.14 in 10.0 mi NNE 10.4 mph - N/A   Scattered Clouds
5:35 AM 28.4 °F 19.1 °F 26.6 °F 93% 30.15 in 10.0 mi NNE 10.4 mph - N/A   Overcast
5:55 AM 28.4 °F 18.5 °F 26.6 °F 93% 30.17 in 10.0 mi NNE 11.5 mph - N/A   Overcast
6:15 AM 28.4 °F 19.1 °F 26.6 °F 93% 30.18 in 10.0 mi NE 10.4 mph - N/A   Overcast
6:35 AM 30.2 °F 20.8 °F 26.6 °F 86% 30.19 in 10.0 mi NNE 11.5 mph - N/A   Overcast
6:55 AM 30.2 °F 21.9 °F 26.6 °F 86% 30.20 in 10.0 mi NNE 9.2 mph - N/A   Overcast
7:15 AM 30.2 °F 20.8 °F 26.6 °F 86% 30.21 in 10.0 mi NNE 11.5 mph - N/A   Overcast
7:35 AM 30.2 °F 20.8 °F 26.6 °F 86% 30.23 in 10.0 mi NNE 11.5 mph - N/A   Overcast
7:55 AM 30.2 °F 20.8 °F 26.6 °F 86% 30.25 in 10.0 mi NNE 11.5 mph - N/A   Overcast
8:15 AM 30.2 °F 20.2 °F 26.6 °F 86% 30.26 in 10.0 mi NNE 12.7 mph - N/A   Overcast
8:35 AM 30.2 °F 19.8 °F 26.6 °F 86% 30.27 in 10.0 mi NE 13.8 mph - N/A   Overcast
8:55 AM 32.0 °F 22.5 °F 26.6 °F 80% 30.30 in 10.0 mi NNE 12.7 mph - N/A   Overcast
9:15 AM 32.0 °F 22.5 °F 26.6 °F 80% 30.31 in 10.0 mi NNE 12.7 mph - N/A   Overcast
9:35 AM 32.0 °F 21.6 °F 26.6 °F 80% 30.33 in 10.0 mi NNE 15.0 mph 18.4 mph N/A   Overcast
9:55 AM 32.0 °F 21.6 °F 26.6 °F 80% 30.34 in 10.0 mi NNE 15.0 mph 18.4 mph N/A   Overcast
10:15 AM 32.0 °F 21.2 °F 26.6 °F 80% 30.35 in 10.0 mi NNE 16.1 mph - N/A   Overcast
10:35 AM 32.0 °F 20.8 °F 26.6 °F 80% 30.36 in 10.0 mi North 17.3 mph - N/A   Overcast
10:55 AM 32.0 °F 20.5 °F 26.6 °F 80% 30.37 in 10.0 mi North 18.4 mph - N/A   Overcast
11:15 AM 32.0 °F 22.1 °F 26.6 °F 80% 30.37 in 10.0 mi North 13.8 mph - N/A   Overcast
11:35 AM 32.0 °F 22.1 °F 26.6 °F 80% 30.37 in 10.0 mi NNE 13.8 mph - N/A   Overcast
11:55 AM 32.0 °F 23.0 °F 26.6 °F 80% 30.37 in 10.0 mi NNE 11.5 mph - N/A   Overcast
12:15 PM 32.0 °F 23.6 °F 26.6 °F 80% 30.37 in 10.0 mi NNE 10.4 mph - N/A   Overcast
12:35 PM 33.8 °F 27.0 °F 26.6 °F 75% 30.37 in 10.0 mi NE 8.1 mph - N/A   Overcast
12:55 PM 33.8 °F 26.4 °F 26.6 °F 75% 30.36 in 10.0 mi NNE 9.2 mph - N/A   Overcast
1:15 PM 33.8 °F 26.4 °F 26.6 °F 75% 30.36 in 10.0 mi NE 9.2 mph - N/A   Scattered Clouds
1:35 PM 35.6 °F 27.5 °F 26.6 °F 70% 30.36 in 10.0 mi NE 11.5 mph - N/A   Scattered Clouds
1:55 PM 35.6 °F 31.7 °F 26.6 °F 70% 30.35 in 10.0 mi NE 4.6 mph - N/A   Scattered Clouds
2:15 PM 37.4 °F 32.1 °F 24.8 °F 60% 30.35 in 10.0 mi NE 6.9 mph - N/A   Mostly Cloudy
2:35 PM 37.4 °F 31.4 °F 26.6 °F 65% 30.35 in 10.0 mi North 8.1 mph - N/A   Scattered Clouds
2:55 PM 35.6 °F 30.7 °F 24.8 °F 65% 30.35 in 10.0 mi ENE 5.8 mph - N/A   Scattered Clouds
3:15 PM 37.4 °F 31.4 °F 24.8 °F 60% 30.34 in 10.0 mi North 8.1 mph - N/A   Scattered Clouds
3:35 PM 37.4 °F 32.8 °F 26.6 °F 65% 30.34 in 10.0 mi NNE 5.8 mph - N/A   Mostly Cloudy
3:55 PM 37.4 °F 34.9 °F 24.8 °F 60% 30.35 in 10.0 mi North 3.5 mph - N/A   Mostly Cloudy
4:15 PM 35.6 °F 29.9 °F 26.6 °F 70% 30.35 in 10.0 mi NE 6.9 mph - N/A   Scattered Clouds
4:35 PM 35.6 °F 31.7 °F 26.6 °F 70% 30.36 in 10.0 mi North 4.6 mph - N/A   Clear
4:55 PM 35.6 °F 32.8 °F 26.6 °F 70% 30.36 in 10.0 mi North 3.5 mph - N/A   Clear
5:15 PM 32.0 °F 26.4 °F 23.0 °F 69% 30.36 in 10.0 mi NE 5.8 mph - N/A   Clear
5:35 PM 30.2 °F 23.4 °F 23.0 °F 75% 30.36 in 10.0 mi ENE 6.9 mph - N/A   Clear
5:55 PM 30.2 °F 24.3 °F 23.0 °F 75% 30.36 in 10.0 mi ENE 5.8 mph - N/A   Clear
6:15 PM 28.4 °F 22.2 °F 23.0 °F 80% 30.36 in 10.0 mi East 5.8 mph - N/A   Clear
6:35 PM 28.4 °F 24.6 °F 23.0 °F 80% 30.37 in 10.0 mi ESE 3.5 mph - N/A   Clear
6:55 PM 26.6 °F 21.2 °F 23.0 °F 86% 30.37 in 10.0 mi ESE 4.6 mph - N/A   Clear
7:15 PM 26.6 °F 21.2 °F 23.0 °F 86% 30.37 in 10.0 mi ESE 4.6 mph - N/A   Clear
7:35 PM 26.6 °F 21.2 °F 23.0 °F 86% 30.38 in 10.0 mi ESE 4.6 mph - N/A   Clear
7:55 PM 26.6 °F 20.0 °F 23.0 °F 86% 30.38 in 10.0 mi SE 5.8 mph - N/A   Clear
8:15 PM 26.6 °F - 23.0 °F 86% 30.39 in 10.0 mi Calm Calm - N/A   Clear
8:35 PM 24.8 °F 17.9 °F 23.0 °F 93% 30.38 in 10.0 mi SSE 5.8 mph - N/A   Clear
8:55 PM 24.8 °F 19.1 °F 23.0 °F 93% 30.37 in 10.0 mi SSE 4.6 mph - N/A   Clear
9:15 PM 21.2 °F - 19.4 °F 93% 30.39 in 10.0 mi Calm Calm - N/A   Clear
9:35 PM 19.4 °F 14.3 °F 19.4 °F 100% 30.39 in 10.0 mi South 3.5 mph - N/A   Clear
9:55 PM 17.6 °F 10.7 °F 17.6 °F 100% 30.38 in 10.0 mi SSW 4.6 mph - N/A   Clear
10:15 PM 19.4 °F 14.3 °F 19.4 °F 100% 30.39 in 10.0 mi South 3.5 mph - N/A   Clear
10:35 PM 19.4 °F 11.5 °F 17.6 °F 93% 30.38 in 10.0 mi SSW 5.8 mph - N/A   Clear
10:55 PM 21.2 °F 13.6 °F 21.2 °F 100% 30.37 in 10.0 mi SSW 5.8 mph - N/A   Clear
11:15 PM 24.8 °F 16.9 °F 23.0 °F 93% 30.37 in 10.0 mi SSW 6.9 mph - N/A   Clear
11:35 PM 21.2 °F 10.9 °F 21.2 °F 100% 30.38 in 10.0 mi SSW 9.2 mph - N/A   Clear
11:55 PM 21.2 °F 11.7 °F 21.2 °F 100% 30.37 in 10.0 mi SSW 8.1 mph - N/A   Clear